Time,TemperatureF,DewpointF,PressureIn,WindDirection,WindDirectionDegrees,WindSpeedMPH,WindSpeedGustMPH,Humidity,HourlyPrecipIn,Conditions,Clouds,dailyrainin,SoftwareType,DateUTC
2013-06-08 00:03:00,57.0,54.0,29.80,WSW,257,1.0,-999.0,91,-99.99,,,-99.99,,2013-06-08 04:03:00,
2013-06-08 00:13:00,57.0,54.0,29.80,WSW,257,1.0,-999.0,91,-99.99,,,-99.99,,2013-06-08 04:13:00,
2013-06-08 00:23:00,57.0,56.0,29.80,North,11,1.0,-999.0,95,-99.99,,,-99.99,,2013-06-08 04:23:00,
2013-06-08 00:33:00,57.0,55.0,29.78,NE,51,3.0,-999.0,93,-99.99,,,-99.99,,2013-06-08 04:33:00,
2013-06-08 00:42:00,57.0,55.0,29.78,NE,51,3.0,-999.0,93,-99.99,,,-99.99,,2013-06-08 04:42:00,
2013-06-08 00:53:00,56.0,54.0,29.78,NNW,347,3.0,-999.0,93,-99.99,,,-99.99,,2013-06-08 04:53:00,
2013-06-08 01:02:00,56.0,55.0,29.78,NE,42,4.0,-999.0,95,-99.99,,,-99.99,,2013-06-08 05:02:00,
2013-06-08 01:12:00,56.0,55.0,29.78,NE,42,4.0,-999.0,95,-99.99,,,-99.99,,2013-06-08 05:12:00,
2013-06-08 01:22:00,56.0,54.0,29.78,NNW,336,5.0,-999.0,94,-99.99,,,-99.99,,2013-06-08 05:22:00,
2013-06-08 01:32:00,57.0,55.0,29.77,North,350,3.0,-999.0,93,-99.99,,,-99.99,,2013-06-08 05:32:00,
2013-06-08 01:42:00,57.0,55.0,29.77,North,350,3.0,-999.0,93,-99.99,,,-99.99,,2013-06-08 05:42:00,
2013-06-08 01:52:00,57.0,55.0,29.77,North,350,2.0,-999.0,93,-99.99,,,-99.99,,2013-06-08 05:52:00,
2013-06-08 02:02:00,57.0,55.0,29.77,North,10,1.0,-999.0,94,-99.99,,,-99.99,,2013-06-08 06:02:00,
2013-06-08 02:13:00,57.0,55.0,29.77,North,10,1.0,-999.0,94,-99.99,,,-99.99,,2013-06-08 06:13:00,
2013-06-08 02:22:00,56.0,55.0,29.77,NNW,334,1.0,-999.0,95,-99.99,,,-99.99,,2013-06-08 06:22:00,
2013-06-08 02:32:00,56.0,55.0,29.78,North,360,1.0,-999.0,95,-99.99,,,-99.99,,2013-06-08 06:32:00,
2013-06-08 02:42:00,56.0,55.0,29.78,North,360,1.0,-999.0,95,-99.99,,,-99.99,,2013-06-08 06:42:00,
2013-06-08 02:52:00,56.0,55.0,29.77,North,355,0.0,-999.0,96,-99.99,,,-99.99,,2013-06-08 06:52:00,
2013-06-08 03:02:00,56.0,55.0,29.77,NNE,21,1.0,-999.0,97,-99.99,,,-99.99,,2013-06-08 07:02:00,
2013-06-08 03:12:00,56.0,55.0,29.77,NNE,21,1.0,-999.0,97,-99.99,,,-99.99,,2013-06-08 07:12:00,
2013-06-08 03:22:00,57.0,56.0,29.77,NNE,22,0.0,-999.0,96,-99.99,,,-99.99,,2013-06-08 07:22:00,
2013-06-08 03:32:00,57.0,56.0,29.77,West,279,0.0,-999.0,95,-99.99,,,-99.99,,2013-06-08 07:32:00,
2013-06-08 03:42:00,57.0,56.0,29.77,West,279,0.0,-999.0,95,-99.99,,,-99.99,,2013-06-08 07:42:00,
2013-06-08 03:52:00,57.0,55.0,29.78,WSW,251,0.0,-999.0,94,-99.99,,,-99.99,,2013-06-08 07:52:00,
2013-06-08 04:02:00,57.0,56.0,29.77,WSW,251,0.0,-999.0,95,-99.99,,,-99.99,,2013-06-08 08:02:00,
2013-06-08 04:12:00,57.0,56.0,29.77,WSW,251,0.0,-999.0,95,-99.99,,,-99.99,,2013-06-08 08:12:00,
2013-06-08 04:22:00,57.0,55.0,29.78,WSW,251,0.0,-999.0,93,-99.99,,,-99.99,,2013-06-08 08:22:00,
2013-06-08 04:32:00,57.0,55.0,29.79,WSW,251,0.0,-999.0,93,-99.99,,,-99.99,,2013-06-08 08:32:00,
2013-06-08 04:42:00,57.0,55.0,29.79,WSW,251,0.0,-999.0,93,-99.99,,,-99.99,,2013-06-08 08:42:00,
2013-06-08 04:52:00,56.0,55.0,29.79,NNW,344,1.0,-999.0,95,-99.99,,,-99.99,,2013-06-08 08:52:00,
2013-06-08 05:02:00,56.0,55.0,29.79,NNE,18,2.0,-999.0,95,-99.99,,,-99.99,,2013-06-08 09:02:00,
2013-06-08 05:12:00,56.0,55.0,29.79,NNE,18,2.0,-999.0,95,-99.99,,,-99.99,,2013-06-08 09:12:00,
2013-06-08 05:22:00,56.0,55.0,29.80,NNW,342,2.0,-999.0,95,-99.99,,,-99.99,,2013-06-08 09:22:00,
2013-06-08 05:33:00,56.0,54.0,29.81,West,263,1.0,-999.0,94,-99.99,,,-99.99,,2013-06-08 09:33:00,
2013-06-08 05:43:00,56.0,54.0,29.81,West,263,1.0,-999.0,94,-99.99,,,-99.99,,2013-06-08 09:43:00,
2013-06-08 05:53:00,55.0,54.0,29.81,NW,319,0.0,-999.0,96,-99.99,,,-99.99,,2013-06-08 09:53:00,
2013-06-08 06:03:00,54.0,53.0,29.82,NNW,341,1.0,-999.0,97,-99.99,,,-99.99,,2013-06-08 10:03:00,
2013-06-08 06:12:00,54.0,53.0,29.82,NNW,341,1.0,-999.0,97,-99.99,,,-99.99,,2013-06-08 10:12:00,
2013-06-08 06:22:00,54.0,53.0,29.83,West,261,0.0,-999.0,97,-99.99,,,-99.99,,2013-06-08 10:22:00,
2013-06-08 06:33:00,54.0,53.0,29.86,North,9,1.0,-999.0,98,-99.99,,,-99.99,,2013-06-08 10:33:00,
2013-06-08 06:43:00,54.0,53.0,29.86,North,9,1.0,-999.0,98,-99.99,,,-99.99,,2013-06-08 10:43:00,
2013-06-08 06:52:00,56.0,54.0,29.86,NNW,338,2.0,-999.0,93,-99.99,,,-99.99,,2013-06-08 10:52:00,
2013-06-08 07:03:00,56.0,54.0,29.86,NNW,347,2.0,-999.0,93,-99.99,,,-99.99,,2013-06-08 11:03:00,
2013-06-08 07:12:00,56.0,54.0,29.86,NNW,347,2.0,-999.0,93,-99.99,,,-99.99,,2013-06-08 11:12:00,
2013-06-08 07:22:00,56.0,53.0,29.87,NNW,344,2.0,-999.0,91,-99.99,,,-99.99,,2013-06-08 11:22:00,
2013-06-08 07:32:00,56.0,54.0,29.88,NNW,330,1.0,-999.0,93,-99.99,,,-99.99,,2013-06-08 11:32:00,
2013-06-08 07:42:00,56.0,54.0,29.88,NNW,330,1.0,-999.0,93,-99.99,,,-99.99,,2013-06-08 11:42:00,
2013-06-08 07:52:00,56.0,54.0,29.89,NNW,344,2.0,-999.0,92,-99.99,,,-99.99,,2013-06-08 11:52:00,
2013-06-08 08:02:00,56.0,54.0,29.89,NNW,340,2.0,-999.0,93,-99.99,,,-99.99,,2013-06-08 12:02:00,
2013-06-08 08:12:00,56.0,54.0,29.89,NNW,340,2.0,-999.0,93,-99.99,,,-99.99,,2013-06-08 12:12:00,
2013-06-08 08:22:00,55.0,54.0,29.92,WNW,296,0.0,-999.0,97,-99.99,,,-99.99,,2013-06-08 12:22:00,
2013-06-08 08:33:00,55.0,54.0,29.92,North,11,1.0,-999.0,98,-99.99,,,-99.99,,2013-06-08 12:33:00,
2013-06-08 08:42:00,55.0,54.0,29.92,North,11,1.0,-999.0,98,-99.99,,,-99.99,,2013-06-08 12:42:00,
2013-06-08 08:52:00,56.0,55.0,29.92,NNE,21,2.0,-999.0,98,-99.99,,,-99.99,,2013-06-08 12:52:00,
2013-06-08 09:02:00,57.0,56.0,29.93,North,360,2.0,-999.0,95,-99.99,,,-99.99,,2013-06-08 13:02:00,
2013-06-08 09:12:00,57.0,56.0,29.93,North,360,2.0,-999.0,95,-99.99,,,-99.99,,2013-06-08 13:12:00,
2013-06-08 09:22:00,57.0,55.0,29.92,North,360,1.0,-999.0,93,-99.99,,,-99.99,,2013-06-08 13:22:00,
2013-06-08 09:32:00,58.0,56.0,29.93,North,360,0.0,-999.0,93,-99.99,,,-99.99,,2013-06-08 13:32:00,
2013-06-08 09:42:00,58.0,56.0,29.93,North,360,0.0,-999.0,93,-99.99,,,-99.99,,2013-06-08 13:42:00,
2013-06-08 09:52:00,58.0,56.0,29.93,North,360,1.0,-999.0,94,-99.99,,,-99.99,,2013-06-08 13:52:00,
2013-06-08 10:02:00,60.0,57.0,29.93,North,360,1.0,-999.0,91,-99.99,,,-99.99,,2013-06-08 14:02:00,
2013-06-08 10:12:00,60.0,57.0,29.93,North,360,1.0,-999.0,91,-99.99,,,-99.99,,2013-06-08 14:12:00,
2013-06-08 10:22:00,61.0,59.0,29.94,North,360,1.0,-999.0,92,-99.99,,,-99.99,,2013-06-08 14:22:00,
2013-06-08 10:32:00,62.0,59.0,29.93,North,360,1.0,-999.0,89,-99.99,,,-99.99,,2013-06-08 14:32:00,
2013-06-08 10:42:00,62.0,59.0,29.93,North,360,1.0,-999.0,89,-99.99,,,-99.99,,2013-06-08 14:42:00,
2013-06-08 10:52:00,62.0,58.0,29.93,North,360,1.0,-999.0,87,-99.99,,,-99.99,,2013-06-08 14:52:00,
2013-06-08 11:02:00,63.0,59.0,29.93,North,360,1.0,-999.0,86,-99.99,,,-99.99,,2013-06-08 15:02:00,
2013-06-08 11:12:00,63.0,59.0,29.93,North,360,1.0,-999.0,86,-99.99,,,-99.99,,2013-06-08 15:12:00,
2013-06-08 11:22:00,64.0,59.0,29.93,North,360,0.0,-999.0,85,-99.99,,,-99.99,,2013-06-08 15:22:00,
2013-06-08 11:33:00,65.0,57.0,29.95,North,360,0.0,-999.0,76,-99.99,,,-99.99,,2013-06-08 15:33:00,
2013-06-08 11:43:00,65.0,57.0,29.95,North,360,0.0,-999.0,76,-99.99,,,-99.99,,2013-06-08 15:43:00,
2013-06-08 11:53:00,67.0,58.0,29.95,North,360,0.0,-999.0,74,-99.99,,,-99.99,,2013-06-08 15:53:00,
2013-06-08 12:03:00,68.0,59.0,29.94,North,360,0.0,-999.0,73,-99.99,,,-99.99,,2013-06-08 16:03:00,
2013-06-08 12:12:00,68.0,59.0,29.94,North,360,0.0,-999.0,73,-99.99,,,-99.99,,2013-06-08 16:12:00,
2013-06-08 12:23:00,69.0,58.0,29.95,NNE,33,0.0,-999.0,69,-99.99,,,-99.99,,2013-06-08 16:23:00,
2013-06-08 12:33:00,67.0,59.0,29.96,North,360,1.0,-999.0,76,-99.99,,,-99.99,,2013-06-08 16:33:00,
2013-06-08 12:42:00,67.0,59.0,29.96,North,360,1.0,-999.0,76,-99.99,,,-99.99,,2013-06-08 16:42:00,
2013-06-08 12:53:00,68.0,59.0,29.95,North,360,0.0,-999.0,72,-99.99,,,-99.99,,2013-06-08 16:53:00,
2013-06-08 13:02:00,66.0,58.0,29.97,North,360,1.0,-999.0,76,-99.99,,,-99.99,,2013-06-08 17:02:00,
2013-06-08 13:12:00,66.0,58.0,29.97,North,360,1.0,-999.0,76,-99.99,,,-99.99,,2013-06-08 17:12:00,
2013-06-08 13:23:00,67.0,59.0,29.97,North,360,0.0,-999.0,75,-99.99,,,-99.99,,2013-06-08 17:23:00,
2013-06-08 13:32:00,68.0,59.0,29.97,North,360,0.0,-999.0,72,-99.99,,,-99.99,,2013-06-08 17:32:00,
2013-06-08 13:42:00,68.0,59.0,29.97,North,360,0.0,-999.0,72,-99.99,,,-99.99,,2013-06-08 17:42:00,
2013-06-08 13:52:00,70.0,62.0,29.95,North,360,0.0,-999.0,77,-99.99,,,-99.99,,2013-06-08 17:52:00,
2013-06-08 14:02:00,71.0,59.0,29.94,North,360,0.0,-999.0,66,-99.99,,,-99.99,,2013-06-08 18:02:00,
2013-06-08 14:12:00,71.0,59.0,29.94,North,360,0.0,-999.0,66,-99.99,,,-99.99,,2013-06-08 18:12:00,
2013-06-08 14:22:00,72.0,60.0,29.92,North,360,0.0,-999.0,67,-99.99,,,-99.99,,2013-06-08 18:22:00,
2013-06-08 14:32:00,72.0,60.0,29.93,North,360,0.0,-999.0,66,-99.99,,,-99.99,,2013-06-08 18:32:00,
2013-06-08 14:42:00,72.0,60.0,29.93,North,360,0.0,-999.0,66,-99.99,,,-99.99,,2013-06-08 18:42:00,
2013-06-08 14:52:00,71.0,62.0,29.94,North,360,0.0,-999.0,73,-99.99,,,-99.99,,2013-06-08 18:52:00,
2013-06-08 15:03:00,69.0,58.0,29.95,North,360,1.0,-999.0,69,-99.99,,,-99.99,,2013-06-08 19:03:00,
2013-06-08 15:12:00,69.0,58.0,29.95,North,360,1.0,-999.0,69,-99.99,,,-99.99,,2013-06-08 19:12:00,
2013-06-08 15:22:00,68.0,59.0,29.95,North,360,2.0,-999.0,73,-99.99,,,-99.99,,2013-06-08 19:22:00,
2013-06-08 15:32:00,69.0,59.0,29.94,North,360,1.0,-999.0,70,-99.99,,,-99.99,,2013-06-08 19:32:00,
2013-06-08 15:42:00,69.0,59.0,29.94,North,360,1.0,-999.0,70,-99.99,,,-99.99,,2013-06-08 19:42:00,
2013-06-08 15:53:00,70.0,56.0,29.93,North,360,1.0,-999.0,62,-99.99,,,-99.99,,2013-06-08 19:53:00,
2013-06-08 16:02:00,70.0,57.0,29.93,North,360,4.0,-999.0,63,-99.99,,,-99.99,,2013-06-08 20:02:00,
2013-06-08 16:12:00,70.0,57.0,29.93,North,360,4.0,-999.0,63,-99.99,,,-99.99,,2013-06-08 20:12:00,
2013-06-08 16:22:00,70.0,58.0,29.94,North,360,1.0,-999.0,65,-99.99,,,-99.99,,2013-06-08 20:22:00,
2013-06-08 16:32:00,68.0,57.0,29.95,North,360,1.0,-999.0,68,-99.99,,,-99.99,,2013-06-08 20:32:00,
2013-06-08 16:42:00,68.0,57.0,29.95,North,360,1.0,-999.0,68,-99.99,,,-99.99,,2013-06-08 20:42:00,
2013-06-08 16:52:00,67.0,58.0,29.97,North,360,2.0,-999.0,73,-99.99,,,-99.99,,2013-06-08 20:52:00,
2013-06-08 17:02:00,67.0,57.0,29.96,North,360,4.0,-999.0,70,-99.99,,,-99.99,,2013-06-08 21:02:00,
2013-06-08 17:12:00,67.0,57.0,29.96,North,360,4.0,-999.0,70,-99.99,,,-99.99,,2013-06-08 21:12:00,
2013-06-08 17:22:00,67.0,58.0,29.97,North,360,3.0,-999.0,73,-99.99,,,-99.99,,2013-06-08 21:22:00,
2013-06-08 17:33:00,67.0,58.0,29.98,North,360,2.0,-999.0,73,-99.99,,,-99.99,,2013-06-08 21:33:00,
2013-06-08 17:43:00,67.0,58.0,29.98,North,360,2.0,-999.0,73,-99.99,,,-99.99,,2013-06-08 21:43:00,
2013-06-08 17:53:00,67.0,58.0,29.98,North,360,1.0,-999.0,74,-99.99,,,-99.99,,2013-06-08 21:53:00,
2013-06-08 18:02:00,66.0,58.0,29.98,North,360,2.0,-999.0,76,-99.99,,,-99.99,,2013-06-08 22:02:00,
2013-06-08 18:12:00,66.0,58.0,29.98,North,360,2.0,-999.0,76,-99.99,,,-99.99,,2013-06-08 22:12:00,
2013-06-08 18:23:00,67.0,60.0,29.97,North,360,1.0,-999.0,77,-99.99,,,-99.99,,2013-06-08 22:23:00,
2013-06-08 18:33:00,67.0,59.0,29.96,North,360,0.0,-999.0,76,-99.99,,,-99.99,,2013-06-08 22:33:00,
2013-06-08 18:42:00,66.0,57.0,29.96,North,360,0.0,-999.0,74,-99.99,,,-99.99,,2013-06-08 22:42:00,
2013-06-08 18:52:00,66.0,57.0,29.96,North,360,0.0,-999.0,74,-99.99,,,-99.99,,2013-06-08 22:52:00,
2013-06-08 19:02:00,66.0,58.0,29.98,North,360,0.0,-999.0,76,-99.99,,,-99.99,,2013-06-08 23:02:00,
2013-06-08 19:12:00,65.0,58.0,29.98,North,360,1.0,-999.0,79,-99.99,,,-99.99,,2013-06-08 23:12:00,
2013-06-08 19:22:00,65.0,58.0,29.98,North,360,1.0,-999.0,79,-99.99,,,-99.99,,2013-06-08 23:22:00,
2013-06-08 19:32:00,65.0,59.0,29.98,North,360,1.0,-999.0,82,-99.99,,,-99.99,,2013-06-08 23:32:00,
2013-06-08 19:42:00,65.0,59.0,29.98,North,360,1.0,-999.0,82,-99.99,,,-99.99,,2013-06-08 23:42:00,
2013-06-08 19:52:00,65.0,60.0,29.99,North,360,1.0,-999.0,83,-99.99,,,-99.99,,2013-06-08 23:52:00,
2013-06-08 20:02:00,64.0,59.0,30.01,North,360,0.0,-999.0,85,-99.99,,,-99.99,,2013-06-09 00:02:00,
2013-06-08 20:12:00,64.0,59.0,30.01,North,360,0.0,-999.0,85,-99.99,,,-99.99,,2013-06-09 00:12:00,
2013-06-08 20:22:00,64.0,60.0,30.01,North,360,0.0,-999.0,87,-99.99,,,-99.99,,2013-06-09 00:22:00,
2013-06-08 20:32:00,63.0,60.0,30.01,North,360,0.0,-999.0,89,-99.99,,,-99.99,,2013-06-09 00:32:00,
2013-06-08 20:42:00,63.0,60.0,30.01,North,360,0.0,-999.0,89,-99.99,,,-99.99,,2013-06-09 00:42:00,
2013-06-08 20:52:00,63.0,60.0,30.02,North,360,0.0,-999.0,89,-99.99,,,-99.99,,2013-06-09 00:52:00,
2013-06-08 21:02:00,62.0,59.0,30.03,North,360,0.0,-999.0,90,-99.99,,,-99.99,,2013-06-09 01:02:00,
2013-06-08 21:12:00,62.0,59.0,30.03,North,360,0.0,-999.0,91,-99.99,,,-99.99,,2013-06-09 01:12:00,
2013-06-08 21:22:00,62.0,59.0,30.03,North,360,0.0,-999.0,91,-99.99,,,-99.99,,2013-06-09 01:22:00,
2013-06-08 21:32:00,62.0,60.0,30.03,North,360,1.0,-999.0,92,-99.99,,,-99.99,,2013-06-09 01:32:00,
2013-06-08 21:42:00,62.0,60.0,30.03,North,360,1.0,-999.0,92,-99.99,,,-99.99,,2013-06-09 01:42:00,
2013-06-08 21:52:00,62.0,59.0,30.03,North,360,0.0,-999.0,91,-99.99,,,-99.99,,2013-06-09 01:52:00,
2013-06-08 22:02:00,61.0,59.0,30.04,North,360,0.0,-999.0,92,-99.99,,,-99.99,,2013-06-09 02:02:00,
2013-06-08 22:12:00,61.0,59.0,30.04,North,360,0.0,-999.0,92,-99.99,,,-99.99,,2013-06-09 02:12:00,
2013-06-08 22:22:00,61.0,59.0,30.06,North,360,0.0,-999.0,93,-99.99,,,-99.99,,2013-06-09 02:22:00,
2013-06-08 22:32:00,60.0,58.0,30.04,North,360,1.0,-999.0,94,-99.99,,,-99.99,,2013-06-09 02:32:00,
2013-06-08 22:42:00,60.0,58.0,30.04,North,360,1.0,-999.0,94,-99.99,,,-99.99,,2013-06-09 02:42:00,
2013-06-08 22:52:00,60.0,58.0,30.05,North,360,1.0,-999.0,94,-99.99,,,-99.99,,2013-06-09 02:52:00,
2013-06-08 23:02:00,60.0,59.0,30.04,North,360,0.0,-999.0,95,-99.99,,,-99.99,,2013-06-09 03:02:00,
2013-06-08 23:12:00,60.0,59.0,30.04,North,360,0.0,-999.0,95,-99.99,,,-99.99,,2013-06-09 03:12:00,
2013-06-08 23:22:00,60.0,58.0,30.05,North,360,0.0,-999.0,94,-99.99,,,-99.99,,2013-06-09 03:22:00,
2013-06-08 23:33:00,60.0,58.0,30.04,North,360,1.0,-999.0,94,-99.99,,,-99.99,,2013-06-09 03:33:00,
2013-06-08 23:43:00,60.0,58.0,30.04,North,360,1.0,-999.0,94,-99.99,,,-99.99,,2013-06-09 03:43:00,
2013-06-08 23:53:00,60.0,58.0,30.04,North,360,0.0,-999.0,94,-99.99,,,-99.99,,2013-06-09 03:53:00,